Location: Boussac
(44.2782°N, 2.3665°E)
Time: 19:38:46
(UTC+00:00)

Ariane Rocket - Pass Details

Date: 15 May 2026
Orbit: 755 x 763 km, 98.4° (Epoch: 6 June)

Event Time Altitude Azimuth Distance (km) Brightness Sun altitude
Exits shadow 20:59:02 26° 134° (SE) 1,457 3.8 -16.0°
Maximum altitude 21:01:37 52° 71° (ENE) 947 3.3 -16.3°
Drops below altitude 10° 21:06:32 10° 356° (N) 2,306 6.3 -16.9°
Sets 21:08:53 0° 352° (N) 3,237 7.3 -17.1°
